Location: Biharia
(46.4333°N, 22.8000°E)
Time: 20:10:11
(UTC+00:00)

Cosmos 1697 Rocket - Pass Details

Date: 16 October 2021
Orbit: 834 x 842 km, 71.0° (Epoch: 29 November)

Event Time Altitude Azimuth Distance (km) Brightness Sun altitude
Rises 17:35:56 0° 232° (SW) 3,388 6.5 -20.7°
Reaches altitude 10° 17:38:35 10° 241° (WSW) 2,457 5.8 -21.1°
Maximum altitude 17:43:44 36° 307° (NW) 1,316 4.2 -22.0°
Drops below altitude 10° 17:48:55 10° 13° (NNE) 2,466 5.1 -22.9°
Sets 17:51:35 0° 22° (NNE) 3,403 5.7 -23.3°
